[[{"header":{"parameterUnit":"m.s-1","parameterCategory":1,"la1":30.2991,"la2":30.254,"lo1":-89.0895,"lo2":-89.0444,"dy":0.0017,"dx":0.0017,"nx":28,"ny":28,"refTime":"2024-11-30T09:00:00:Z","depth":0,"parameterNumber":2,"parameterNumberName":"U-component_of_WINDS"},"data":[0,0,0,0,0,0,0,0,0,0,0,0,0,0,0,0,0,0,0,0,0,0,0,0,0,0,0,0,0,0,0,0,0,0,0,0,0,0,0,0,0,0,0,0,0,0,0,0,0,0,0,0,0,0,0,0,0,0,-2.7308,-2.7308,0,-2.7387,-2.7387,-2.7388,-2.7281,-2.7278,-2.7274,-2.727,-2.7353,-2.7359,-2.7364,0,0,0,0,0,0,0,0,0,0,0,0,0,-2.7065,-2.707,-2.7307,-2.7308,-2.7309,-2.7386,-2.7387,-2.7389,-2.7282,-2.7277,-2.7273,-2.7268,-2.7351,-2.7358,-2.7365,0,0,0,0,0,0,0,0,0,0,0,0,0,-2.716,-2.7071,-2.7307,-2.7266,-2.7263,-2.7386,-2.7388,-2.7389,-2.7283,-2.7277,-2.7272,-2.7266,-2.7349,-2.7357,-2.7366,-2.7535,0,0,-2.7392,-2.7396,0,0,0,0,0,0,0,0,-2.7154,-2.7169,-2.7271,-2.7269,-2.7266,-2.7318,-2.7332,-2.7438,-2.7285,-2.7275,-2.727,-2.7263,-2.7346,-2.7355,-2.7382,-2.7538,-2.7542,-2.7393,-2.7398,-2.7402,-2.7404,0,0,0,0,0,0,0,-2.7148,-2.7165,-2.7339,-2.7272,-2.7269,-2.7243,-2.725,-2.7352,-2.7342,-2.7276,-2.7268,-2.7279,-2.7344,-2.7374,-2.7383,-2.7543,-2.7393,-2.74,-2.7406,-2.7409,-2.7841,-2.7847,0,0,0,0,0,0,-2.7146,-2.716,-2.7336,-2.7341,-2.7195,-2.7252,-2.726,-2.7307,-2.7341,-2.734,-2.7284,-2.7274,-2.7362,-2.7373,-2.7386,-2.7586,-2.7402,-2.741,-2.7415,-2.7835,-2.7843,-2.785,0,0,0,0,0,0,-2.7141,-2.7163,-2.7333,-2.7248,-2.7268,-2.7262,-2.7316,-2.7312,-2.7342,-2.7347,-2.7345,-2.7317,-2.7358,-2.7374,-2.7498,-2.7588,-2.7414,-2.7422,-2.7828,-2.7838,-2.7846,-2.7989,0,0,0,0,0,0,-2.7135,-2.7162,-2.7226,-2.7251,-2.7273,-2.7445,-2.7322,-2.7317,-2.7357,-2.7345,-2.7377,-2.7377,-2.7355,-2.7486,-2.7507,-2.7597,-2.7429,-2.782,-2.7832,-2.7843,-2.7976,-2.8002,-2.8024,0,0,0,0,0,-2.7127,-2.7264,-2.723,-2.7252,-2.7353,-2.745,-2.7463,-2.7434,-2.7365,-2.743,-2.7432,-2.7376,-2.7574,-2.75,-2.7522,-2.7616,-2.7814,-2.7829,-2.7842,-2.7966,-2.7997,-2.8024,0,0,0,0,0,0,-2.7251,-2.7266,-2.7229,-2.7378,-2.7414,-2.7432,-2.7513,-2.7468,-2.7525,-2.7511,-2.7472,-2.7481,-2.7614,-2.7627,-2.7544,-2.7781,-2.7683,-2.7702,-2.7768,-2.7798,-2.7822,-2.7817,-2.7436,0,0,0,0,0,-2.7295,-2.7372,-2.7381,-2.7512,-2.7531,-2.7519,-2.756,-2.7535,-2.757,-2.7585,-2.7597,-2.7634,-2.7704,-2.7751,-2.7816,-2.7976,-2.7982,-2.8052,-2.8076,-2.8095,-2.8113,-2.8199,-2.8231,-2.7896,-2.7896,-2.7896,0,0,-2.7389,-2.7406,-2.7458,-2.7537,-2.7562,-2.7643,-2.7533,-2.7623,-2.7683,-2.7599,-2.7718,-2.7727,-2.7765,-2.7909,-2.7972,-2.7924,-2.8206,-2.8113,-2.8129,-2.8136,-2.8217,-2.8249,-2.8277,-2.7906,-2.7904,-2.7902,0,0,-2.7601,-2.7621,-2.7733,-2.7759,-2.7797,-2.7787,-2.7814,-2.7839,-2.7842,-2.796,-2.7898,-2.7968,-2.809,-2.812,-2.8152,-2.8373,-2.8324,-2.8394,-2.8521,-2.8605,-2.8632,-2.8655,-2.8735,-2.8764,-2.8412,-2.8412,-2.8412,0,-2.7713,-2.7832,-2.7796,-2.7891,-2.7928,-2.7853,-2.7966,-2.7993,-2.8051,-2.8078,-2.8022,-2.8173,-2.8193,-2.8343,-2.8397,-2.8424,-2.8454,-2.8392,-2.8631,-2.8654,-2.8675,-2.8751,-2.8781,-2.8421,-2.842,-2.8419,-2.8418,0,-2.7968,-2.8052,-2.8137,-2.8194,-2.824,-2.8344,-2.8323,-2.8374,-2.8343,-2.834,-2.8461,-2.8482,-2.855,-2.8583,-2.8555,-2.8729,-2.8697,-2.8636,-2.8538,-2.8716,-2.8787,-2.8816,-2.8433,-2.843,-2.8427,-2.8425,0,0,-2.8265,-2.8298,-2.8331,-2.8355,-2.839,-2.8455,-2.8554,-2.8619,-2.8665,-2.8706,-2.8789,-2.8892,-2.8836,-2.8871,-2.8845,-2.8919,-2.9094,-2.8848,-2.8849,-2.8895,-2.9288,-2.9336,-2.937,-2.906,-2.9065,-2.9069,-2.9286,0,-2.8478,-2.8651,-2.862,-2.8787,-2.8864,-2.8793,-2.8879,-2.8911,-2.8909,-2.8974,-2.8972,-2.9047,-2.8966,-2.8987,-2.9056,-2.9058,-2.9173,-2.9041,-2.9138,-2.9142,-2.9134,-2.9407,-2.9458,-2.9662,-2.9313,-2.9318,-2.9321,0,-2.8751,-2.8802,-2.8978,-2.9,-2.9031,-2.911,-2.9167,-2.9229,-2.9263,-2.9256,-2.9295,-2.9254,-2.9353,-2.925,-2.9386,-2.9298,-2.9334,-2.9341,-2.9348,-2.9359,-2.9245,-2.9428,-2.9726,-2.9757,-2.9364,-2.9361,-2.9357,0,-2.8953,-2.9065,-2.9184,-2.9207,-2.9235,-2.9292,-2.9307,-2.9334,-2.9375,-2.9425,-2.9451,-2.9512,-2.9546,-2.9593,-2.957,-2.9497,-2.9711,-2.9606,-2.971,-2.9711,-2.9761,-2.9759,-3.0072,-2.978,-2.978,-2.9779,-2.9779,0,-2.9196,-2.9307,-2.9275,-2.9349,-2.947,-2.9433,-2.9554,-2.956,-2.9584,-2.9658,-2.9599,-2.9669,-2.9633,-2.97,-2.9682,-2.9798,-2.9813,-2.9812,-2.9806,-2.9819,-2.982,-2.9845,-2.9832,-2.9787,-2.9786,-2.9784,-2.9783,0,-2.9444,-2.9426,-2.9552,-2.9568,-2.9574,-2.9663,-2.9676,-2.9746,-2.9738,-2.9832,-2.9852,-2.9841,-2.9917,-2.9897,-2.9981,-2.9968,-3.0116,-3.0091,-3.0105,-3.01,-3.0206,-3.0197,-3.0549,-3.0594,-3.0271,-3.0274,-3.0276,0,-2.9602,-2.9685,-2.9709,-2.9754,-2.9773,-2.9846,-2.9887,-2.9852,-2.9898,-2.9941,-3.0005,-3.0076,-3.0131,-3.0256,-3.0256,-3.0319,-3.0297,-3.0415,-3.0306,-3.0316,-3.0301,-3.0298,-3.0307,-3.0439,-3.0442,-3.0445,-3.0448,0,-2.9885,-2.9872,-2.9934,-2.9993,-3.0044,-3.0088,-3.0127,-3.0167,-3.0135,-3.0189,-3.0266,-3.0309,-3.0393,-3.0465,-3.0522,-3.0536,-3.0488,-3.0481,-3.0509,-3.0525,-3.0531,-3.0531,-3.0167,-3.0475,-3.0472,-3.047,-3.0468,-3.0467,-3.0095,-3.0165,-3.0193,-3.0264,-3.0289,-3.0327,-3.0392,-3.0392,-3.0456,-3.0522,-3.0496,-3.0585,-3.0614,-3.0686,-3.0708,-3.0777,-3.0732,-3.0772,-3.0782,-3.0793,-3.0808,-3.0517,-3.0787,-3.0786,-3.0785,-3.0784,-3.0784,0,-3.0377,-3.0391,-3.0456,-3.0512,-3.0568,-3.0514,-3.0554,-3.0604,-3.0683,-3.0714,-3.0769,-3.0857,-3.0926,-3.093,-3.0994,-3.1048,-3.1027,-3.1066,-3.1064,-3.1068,-3.0843,-3.0814,-3.1082,-3.1082,-3.1082,-3.1082,-3.1082,-3.1082,-3.0531,-3.0648,-3.0638,-3.0767,-3.0779,-3.0865,-3.0893,-3.0927,-3.0952,-3.1053,-3.111,-3.1111,-3.1131,-3.1196,-3.1256,-3.1255,-3.1283,-3.1331,-3.1322,-3.1113,-3.1084,-3.1055,-3.1028,-3.1336,-3.1337,-3.1541,-3.1543,-3.1544]},{"header":{"parameterUnit":"m.s-1","parameterCategory":1,"la1":30.2991,"la2":30.254,"lo1":-89.0895,"lo2":-89.0444,"dy":0.0017,"dx":0.0017,"nx":28,"ny":28,"refTime":"2024-11-30T09:00:00:Z","depth":0,"parameterNumber":3,"parameterNumberName":"V-component_of_WINDS"},"data":[0,0,0,0,0,0,0,0,0,0,0,0,0,0,0,0,0,0,0,0,0,0,0,0,0,0,0,0,0,0,0,0,0,0,0,0,0,0,0,0,0,0,0,0,0,0,0,0,0,0,0,0,0,0,0,0,0,0,-6.4557,-6.4558,0,-6.4688,-6.469,-6.4691,-6.459,-6.4585,-6.4581,-6.4577,-6.4706,-6.4714,-6.4721,0,0,0,0,0,0,0,0,0,0,0,0,0,-6.4211,-6.4218,-6.4556,-6.4558,-6.456,-6.4688,-6.469,-6.4692,-6.459,-6.4585,-6.458,-6.4575,-6.4704,-6.4713,-6.4722,0,0,0,0,0,0,0,0,0,0,0,0,0,-6.4354,-6.4221,-6.4556,-6.4525,-6.4523,-6.4688,-6.469,-6.4692,-6.4591,-6.4585,-6.4578,-6.4572,-6.4701,-6.4712,-6.4723,-6.4924,0,0,-6.4758,-6.4762,0,0,0,0,0,0,0,0,-6.4346,-6.4367,-6.4528,-6.4527,-6.4526,-6.4616,-6.4615,-6.477,-6.4593,-6.4565,-6.4577,-6.4569,-6.4681,-6.4694,-6.4733,-6.493,-6.4935,-6.4759,-6.4765,-6.477,-6.4773,0,0,0,0,0,0,0,-6.4336,-6.436,-6.4608,-6.453,-6.4529,-6.4502,-6.4515,-6.4644,-6.4658,-6.4567,-6.456,-6.4578,-6.4679,-6.4722,-6.4735,-6.4937,-6.4758,-6.4768,-6.4775,-6.478,-6.5304,-6.531,0,0,0,0,0,0,-6.433,-6.4353,-6.4604,-6.4612,-6.4418,-6.4514,-6.4528,-6.4594,-6.4657,-6.466,-6.4583,-6.4572,-6.4706,-6.4722,-6.4739,-6.4977,-6.477,-6.4781,-6.4787,-6.5296,-6.5305,-6.5313,0,0,0,0,0,0,-6.4323,-6.4354,-6.4599,-6.4481,-6.451,-6.4527,-6.4601,-6.46,-6.4642,-6.4669,-6.467,-6.4624,-6.4701,-6.4723,-6.4879,-6.498,-6.4786,-6.4796,-6.5288,-6.5299,-6.5309,-6.5456,0,0,0,0,0,0,-6.4314,-6.4352,-6.443,-6.4483,-6.4517,-6.4739,-6.4607,-6.4607,-6.4662,-6.465,-6.4708,-6.4711,-6.4698,-6.4862,-6.489,-6.4992,-6.4805,-6.5279,-6.5293,-6.5306,-6.5442,-6.547,-6.5494,0,0,0,0,0,-6.4302,-6.4465,-6.4434,-6.4465,-6.4615,-6.4745,-6.4763,-6.4747,-6.4671,-6.4748,-6.4765,-6.4709,-6.4965,-6.4879,-6.4909,-6.5017,-6.5272,-6.5289,-6.5305,-6.543,-6.5465,-6.5494,0,0,0,0,0,0,-6.4421,-6.4471,-6.4438,-6.4624,-6.4681,-6.4727,-6.4824,-6.4784,-6.4862,-6.4847,-6.4821,-6.4835,-6.4998,-6.5022,-6.4926,-6.5213,-6.5106,-6.5129,-6.5191,-6.5224,-6.525,-6.5241,-6.4814,0,0,0,0,0,-6.4469,-6.4572,-6.461,-6.477,-6.4801,-6.4808,-6.4864,-6.4846,-6.4903,-6.4927,-6.4954,-6.5011,-6.5103,-6.5165,-6.5252,-6.5445,-6.5455,-6.5533,-6.556,-6.5581,-6.5601,-6.5703,-6.5738,-6.5366,-6.5366,-6.5365,0,0,-6.4569,-6.461,-6.4676,-6.4795,-6.4837,-6.4943,-6.4829,-6.4945,-6.5023,-6.4943,-6.5092,-6.5115,-6.5176,-6.5351,-6.5429,-6.5376,-6.5706,-6.5601,-6.5618,-6.5627,-6.5723,-6.5759,-6.579,-6.5377,-6.5375,-6.5373,0,0,-6.4806,-6.4847,-6.4985,-6.503,-6.5095,-6.5099,-6.5132,-6.5185,-6.5197,-6.5347,-6.5289,-6.5379,-6.554,-6.5586,-6.563,-6.5883,-6.5834,-6.5912,-6.6049,-6.6149,-6.6178,-6.6204,-6.6293,-6.6326,-6.5931,-6.5932,-6.5932,0,-6.4921,-6.508,-6.506,-6.5181,-6.5234,-6.5169,-6.5307,-6.5351,-6.5441,-6.5478,-6.5418,-6.5618,-6.5655,-6.5839,-6.59,-6.5939,-6.5974,-6.5905,-6.6176,-6.6201,-6.6225,-6.631,-6.6344,-6.5941,-6.594,-6.5939,-6.5938,0,-6.5218,-6.5329,-6.5432,-6.5522,-6.5587,-6.5716,-6.5714,-6.5781,-6.5757,-6.5767,-6.5919,-6.596,-6.6054,-6.6096,-6.6073,-6.6277,-6.6242,-6.618,-6.6071,-6.627,-6.6349,-6.6382,-6.5954,-6.595,-6.5948,-6.5946,0,0,-6.5534,-6.5612,-6.565,-6.569,-6.5757,-6.5841,-6.5966,-6.6059,-6.6117,-6.6181,-6.6284,-6.6421,-6.6364,-6.6414,-6.6396,-6.6484,-6.668,-6.641,-6.6411,-6.6458,-6.6905,-6.6952,-6.699,-6.6648,-6.6654,-6.6659,-6.69,0,-6.5773,-6.5993,-6.5978,-6.6184,-6.6285,-6.6224,-6.6332,-6.6384,-6.6396,-6.6482,-6.6493,-6.6591,-6.6509,-6.6538,-6.6623,-6.6639,-6.6769,-6.6621,-6.6742,-6.6746,-6.6729,-6.7031,-6.7081,-6.7306,-6.6931,-6.6936,-6.694,0,-6.6081,-6.6158,-6.6374,-6.6426,-6.6467,-6.6566,-6.6649,-6.6733,-6.6789,-6.6791,-6.6848,-6.6815,-6.6938,-6.6828,-6.6997,-6.6897,-6.6945,-6.696,-6.6968,-6.6979,-6.6855,-6.7049,-6.7378,-6.7412,-6.6988,-6.6984,-6.6981,0,-6.6289,-6.6446,-6.6595,-6.6631,-6.6695,-6.6765,-6.6795,-6.6845,-6.6902,-6.6974,-6.701,-6.7096,-6.7142,-6.7208,-6.7198,-6.7119,-6.737,-6.7259,-6.7374,-6.7375,-6.743,-6.7427,-6.7771,-6.7462,-6.7462,-6.7461,-6.746,0,-6.6557,-6.6692,-6.6689,-6.6782,-6.693,-6.6911,-6.7057,-6.7079,-6.7124,-6.7218,-6.7169,-6.7257,-6.7239,-6.7327,-6.7319,-6.746,-6.7481,-6.7485,-6.7482,-6.749,-6.7489,-6.7521,-6.7505,-6.747,-6.7468,-6.7466,-6.7465,0,-6.6815,-6.6819,-6.6977,-6.7025,-6.704,-6.7147,-6.7187,-6.7273,-6.728,-6.7399,-6.7426,-6.7437,-6.7538,-6.7534,-6.7648,-6.7643,-6.7816,-6.7794,-6.7797,-6.7793,-6.7908,-6.7897,-6.8284,-6.8334,-6.7993,-6.7997,-6.7999,0,-6.6986,-6.7088,-6.7147,-6.7207,-6.7241,-6.7339,-6.7396,-6.7381,-6.7442,-6.7514,-6.7591,-6.7688,-6.7764,-6.7927,-6.7944,-6.803,-6.801,-6.8139,-6.8022,-6.8027,-6.8011,-6.8005,-6.8015,-6.8162,-6.8166,-6.8169,-6.8172,0,-6.7289,-6.7285,-6.7371,-6.7459,-6.7529,-6.7597,-6.7658,-6.7709,-6.77,-6.7772,-6.7875,-6.7934,-6.805,-6.8146,-6.8228,-6.8256,-6.8213,-6.8209,-6.824,-6.8249,-6.8247,-6.8249,-6.786,-6.82,-6.8197,-6.8195,-6.8193,-6.8192,-6.7508,-6.7595,-6.7651,-6.7748,-6.7793,-6.7851,-6.7934,-6.7953,-6.8039,-6.8133,-6.8118,-6.8233,-6.8285,-6.8392,-6.8427,-6.8516,-6.8469,-6.8515,-6.8526,-6.8538,-6.855,-6.8233,-6.8531,-6.853,-6.8529,-6.8528,-6.8528,0,-6.7807,-6.784,-6.7929,-6.8018,-6.8094,-6.8048,-6.8113,-6.8179,-6.8282,-6.8335,-6.8411,-6.8529,-6.8621,-6.8646,-6.8734,-6.88,-6.8782,-6.8823,-6.8818,-6.8825,-6.8587,-6.8551,-6.8836,-6.8836,-6.8836,-6.8836,-6.8836,-6.8836,-6.7972,-6.8118,-6.8121,-6.8288,-6.8319,-6.8433,-6.8474,-6.8527,-6.8569,-6.8704,-6.8781,-6.8796,-6.8838,-6.8929,-6.901,-6.9015,-6.9049,-6.9099,-6.9096,-6.8873,-6.8842,-6.8812,-6.8779,-6.9107,-6.9107,-6.9326,-6.9329,-6.933]}]]